Owen Roberts, Cayman Islands

5:10 AM EST on December 16, 2017 (GMT -0500)
Roberts International

Weather History for MWCR - March, 2014

Change the Weather History Date:

Thursday, March 13, 2014

  Actual Average Record
Temperature  
Mean Temperature 80 °F -  
Max Temperature 86 °F 83 °F 86 °F (2002)
Min Temperature 73 °F 74 °F 69 °F (2005)
Cooling Degree Days 14    
Growing Degree Days 30 (Base 50)    
Moisture  
Dew Point 72 °F    
Average Humidity 72    
Maximum Humidity 89    
Minimum Humidity 56    
Precipitation  
Precipitation 0.00 in - - ()
Sea Level Pressure  
Sea Level Pressure 30.00 in    
Wind  
Wind Speed 3 mph ()    
Max Wind Speed 7 mph    
Max Gust Speed -    
Visibility 6.2 miles    
Events      
Averages and records for this station are not official NWS values.
T = Trace of Precipitation, MM = Missing Value Source: Averaged Metar Reports

Daily Weather History Graph

Daily Weather History Graph

Search for Another Location

Airport or City:

Trip Planner

Search our weather history database for the weather conditions in past years. The results will help you decide how hot, cold, wet, or windy it might be!

Date:

Astronomy

Mar. 13, 2014 Rise Set
Actual Time 6:35 AM EST 6:34 PM EST
Civil Twilight 6:13 AM EST 6:56 PM EST
Nautical Twilight 5:48 AM EST 7:21 PM EST
Astronomical Twilight 5:22 AM EST 7:47 PM EST
Moon 4:14 PM EST (3/13) 4:22 AM EST (3/13)
Length of Visible Light 12h 43m
Length of Day
11h 59m
Waxing Gibbous, 91% of the Moon is Illuminated
Mar 13
Waxing Gibbous
Mar 16
Full
Mar 23
Last Quarter
Mar 30
New
Apr 7
First Quarter

Hourly Weather History & Observations

Time (EST) Temp. Heat Index Dew Point Humidity Pressure Visibility Wind Dir Wind Speed Gust Speed Precip Events Conditions
5:50 AM 75.2 °F - 71.6 °F 89% 29.95 in - Calm Calm - N/A   Clear
6:50 AM 75.2 °F - 71.6 °F 89% 29.95 in 6.2 mi South 2.3 mph - N/A   Partly Cloudy
7:00 AM 75 °F - 71 °F 84% 29.96 in 6 mi South 2.3 mph - -   Scattered Clouds
7:57 AM 80.6 °F 84.6 °F 71.6 °F 74% 29.98 in 6.2 mi South 4.6 mph - N/A   Partly Cloudy
8:51 AM 80.6 °F 84.6 °F 71.6 °F 74% 30.01 in 6.2 mi SSW 3.5 mph - N/A   Partly Cloudy
9:52 AM 82.4 °F 87.2 °F 71.6 °F 70% 30.04 in 6.2 mi SSW 5.8 mph - N/A   Partly Cloudy
10:51 AM 84.2 °F 89.6 °F 71.6 °F 66% 30.04 in 6.2 mi WSW 2.3 mph - N/A   Scattered Clouds
11:51 AM 84.2 °F 89.6 °F 71.6 °F 66% 30.01 in 6.2 mi South 5.8 mph - N/A   Partly Cloudy
12:52 PM 84.2 °F 89.6 °F 71.6 °F 66% 30.01 in 6.2 mi SSW 6.9 mph - N/A   Partly Cloudy
1:00 PM 85 °F - 72 °F 56% 30.01 in 6 mi SSW 6.9 mph - -   Scattered Clouds
2:00 PM 84.2 °F 89.6 °F 71.6 °F 66% 30.01 in 6.2 mi NE 4.6 mph - N/A   Partly Cloudy
3:00 PM 82.4 °F 87.2 °F 71.6 °F 70% 29.98 in 6.2 mi NE 4.6 mph - N/A   Partly Cloudy
4:00 PM 84.2 °F 89.6 °F 71.6 °F 66% 29.98 in 6.2 mi Variable 5.8 mph - N/A   Partly Cloudy
5:00 PM 84.2 °F 89.6 °F 71.6 °F 66% 29.98 in 6.2 mi NW 6.9 mph - N/A   Scattered Clouds
6:00 PM 82.4 °F 87.2 °F 71.6 °F 70% 29.98 in 6.2 mi NNW 6.9 mph - N/A   Mostly Cloudy
7:00 PM 81 °F - 72 °F 67% 30.00 in 6 mi North 4.6 mph - -   Partly Cloudy
7:00 PM 80.6 °F 84.6 °F 71.6 °F 74% 29.98 in 6.2 mi North 4.6 mph - N/A   Scattered Clouds
8:00 PM 80.6 °F 85.4 °F 73.4 °F 79% 30.01 in 6.2 mi Variable 3.5 mph - N/A   Partly Cloudy
9:00 PM 78.8 °F - 71.6 °F 78% 30.04 in 6.2 mi North 4.6 mph - N/A   Partly Cloudy
10:00 PM 78.8 °F - 71.6 °F 78% 30.04 in 6.2 mi NNE 5.8 mph - N/A   Partly Cloudy